Norman, OK

12:04 AM CDT on March 27, 2017 (GMT -0500)
Univ. Of Oklahoma Westheimer

Weather History for KOUN - November, 2013

Change the Weather History Date:

Tuesday, November 19, 2013

  Actual Average Record
Temperature  
Mean Temperature 55 °F -  
Max Temperature 60 °F 57 °F 80 °F (1950)
Min Temperature 50 °F 36 °F 23 °F (1968)
Degree Days  
Heating Degree Days 10    
Growing Degree Days 5 (Base 50)    
Moisture  
Dew Point 34 °F    
Average Humidity 47    
Maximum Humidity 62    
Minimum Humidity 34    
Precipitation  
Precipitation 0.00 in - - ()
Sea Level Pressure  
Sea Level Pressure 30.09 in    
Wind  
Wind Speed 10 mph (SE)    
Max Wind Speed 22 mph    
Max Gust Speed 29 mph    
Visibility 10 miles    
Events      
Averages and records for this station are not official NWS values.
T = Trace of Precipitation, MM = Missing Value Source: NWS Daily Summary

Daily Weather History Graph

Daily Weather History Graph

Search for Another Location

Airport or City:

Trip Planner

Search our weather history database for the weather conditions in past years. The results will help you decide how hot, cold, wet, or windy it might be!

Date:

Astronomy

Nov. 19, 2013 Rise Set
Actual Time 7:09 AM CST 5:21 PM CST
Civil Twilight 6:41 AM CST 5:48 PM CST
Nautical Twilight 6:10 AM CST 6:19 PM CST
Astronomical Twilight 5:40 AM CST 6:49 PM CST
Moon 7:14 PM CST (11/19) 8:48 AM CST (11/19)
Length of Visible Light 11h 06m
Length of Day
10h 12m
Waning Gibbous, 96% of the Moon is Illuminated
Nov 19
Waning Gibbous
Nov 25
Last Quarter
Dec 2
New
Dec 9
First Quarter
Dec 17
Full

Hourly Weather History & Observations

Time (CST) Temp. Dew Point Humidity Pressure Visibility Wind Dir Wind Speed Gust Speed Precip Events Conditions
12:15 AM 50.0 °F 35.6 °F 58% 30.19 in 10.0 mi East 3.5 mph - N/A   Clear
12:35 AM 51.8 °F 35.6 °F 54% 30.19 in 10.0 mi East 6.9 mph - N/A   Clear
12:55 AM 51.8 °F 35.6 °F 54% 30.19 in 10.0 mi ESE 4.6 mph - N/A   Mostly Cloudy
1:15 AM 51.8 °F 35.6 °F 54% 30.19 in 10.0 mi ESE 4.6 mph - N/A   Overcast
1:35 AM 51.8 °F 35.6 °F 54% 30.19 in 10.0 mi ESE 3.5 mph - N/A   Overcast
1:55 AM 50.0 °F 35.6 °F 58% 30.19 in 10.0 mi East 3.5 mph - N/A   Overcast
2:15 AM 50.0 °F 35.6 °F 58% 30.19 in 10.0 mi Calm Calm - N/A   Mostly Cloudy
2:35 AM 50.0 °F 37.4 °F 62% 30.18 in 10.0 mi Calm Calm - N/A   Scattered Clouds
2:55 AM 50.0 °F 37.4 °F 62% 30.19 in 10.0 mi Calm Calm - N/A   Mostly Cloudy
3:15 AM 51.8 °F 37.4 °F 58% 30.18 in 10.0 mi ESE 4.6 mph - N/A   Mostly Cloudy
3:35 AM 50.0 °F 37.4 °F 62% 30.18 in 10.0 mi ESE 4.6 mph - N/A   Scattered Clouds
3:55 AM 50.0 °F 37.4 °F 62% 30.18 in 10.0 mi ESE 3.5 mph - N/A   Clear
4:15 AM 50.0 °F 37.4 °F 62% 30.17 in 10.0 mi ESE 4.6 mph - N/A   Mostly Cloudy
4:35 AM 50.0 °F 37.4 °F 62% 30.17 in 10.0 mi SE 4.6 mph - N/A   Mostly Cloudy
4:55 AM 51.8 °F 37.4 °F 58% 30.17 in 10.0 mi ESE 6.9 mph - N/A   Mostly Cloudy
5:15 AM 51.8 °F 37.4 °F 58% 30.17 in 10.0 mi SE 8.1 mph - N/A   Overcast
5:35 AM 51.8 °F 37.4 °F 58% 30.16 in 10.0 mi SE 9.2 mph - N/A   Mostly Cloudy
5:55 AM 51.8 °F 37.4 °F 58% 30.16 in 10.0 mi SE 9.2 mph - N/A   Mostly Cloudy
6:15 AM 51.8 °F 35.6 °F 54% 30.17 in 10.0 mi SSE 6.9 mph - N/A   Overcast
6:35 AM 51.8 °F 35.6 °F 54% 30.17 in 10.0 mi SSE 8.1 mph - N/A   Overcast
6:55 AM 51.8 °F 35.6 °F 54% 30.17 in 10.0 mi SE 5.8 mph - N/A   Overcast
7:15 AM 51.8 °F 35.6 °F 54% 30.17 in 10.0 mi SE 5.8 mph - N/A   Overcast
7:35 AM 51.8 °F 35.6 °F 54% 30.18 in 10.0 mi SE 6.9 mph - N/A   Overcast
7:55 AM 51.8 °F 35.6 °F 54% 30.18 in 10.0 mi SE 8.1 mph - N/A   Overcast
8:15 AM 51.8 °F 35.6 °F 54% 30.17 in 10.0 mi SE 8.1 mph - N/A   Overcast
8:35 AM 51.8 °F 35.6 °F 54% 30.17 in 10.0 mi SSE 12.7 mph - N/A   Overcast
8:55 AM 53.6 °F 33.8 °F 47% 30.17 in 10.0 mi SSE 18.4 mph 23.0 mph N/A   Overcast
9:15 AM 53.6 °F 33.8 °F 47% 30.17 in 10.0 mi SSE 11.5 mph 24.2 mph N/A   Overcast
9:35 AM 53.6 °F 33.8 °F 47% 30.18 in 10.0 mi SSE 19.6 mph 25.3 mph N/A   Overcast
9:55 AM 53.6 °F 33.8 °F 47% 30.18 in 10.0 mi SSE 19.6 mph 27.6 mph N/A   Overcast
10:15 AM 53.6 °F 33.8 °F 47% 30.18 in 10.0 mi SSE 15.0 mph 25.3 mph N/A   Overcast
10:35 AM 53.6 °F 33.8 °F 47% 30.18 in 10.0 mi SSE 16.1 mph 23.0 mph N/A   Overcast
10:55 AM 53.6 °F 33.8 °F 47% 30.17 in 10.0 mi SSE 16.1 mph 26.5 mph N/A   Overcast
11:15 AM 57.2 °F 33.8 °F 41% 30.16 in 10.0 mi SSE 18.4 mph 24.2 mph N/A   Mostly Cloudy
11:35 AM 55.4 °F 33.8 °F 44% 30.15 in 10.0 mi SSE 18.4 mph 25.3 mph N/A   Overcast
11:55 AM 57.2 °F 32.0 °F 38% 30.14 in 10.0 mi SSE 20.7 mph 25.3 mph N/A   Mostly Cloudy
12:15 PM 59.0 °F 32.0 °F 36% 30.12 in 10.0 mi SSE 19.6 mph 25.3 mph N/A   Scattered Clouds
12:35 PM 57.2 °F 32.0 °F 38% 30.11 in 10.0 mi SSE 17.3 mph 27.6 mph N/A   Mostly Cloudy
12:55 PM 57.2 °F 32.0 °F 38% 30.09 in 10.0 mi SSE 20.7 mph 25.3 mph N/A   Overcast
1:15 PM 57.2 °F 32.0 °F 38% 30.08 in 10.0 mi SE 18.4 mph - N/A   Overcast
1:35 PM 59.0 °F 32.0 °F 36% 30.07 in 10.0 mi SSE 18.4 mph 27.6 mph N/A   Overcast
1:55 PM 57.2 °F 32.0 °F 38% 30.06 in 10.0 mi SSE 15.0 mph 20.7 mph N/A   Overcast
2:15 PM 59.0 °F 32.0 °F 36% 30.05 in 10.0 mi SE 18.4 mph 23.0 mph N/A   Overcast
2:35 PM 59.0 °F 32.0 °F 36% 30.04 in 10.0 mi SE 13.8 mph 21.9 mph N/A   Mostly Cloudy
2:55 PM 60.8 °F 32.0 °F 34% 30.03 in 10.0 mi SSE 16.1 mph - N/A   Scattered Clouds
3:15 PM 60.8 °F 32.0 °F 34% 30.02 in 10.0 mi SSE 18.4 mph - N/A   Scattered Clouds
3:35 PM 60.8 °F 32.0 °F 34% 30.02 in 10.0 mi SE 20.7 mph 25.3 mph N/A   Scattered Clouds
3:55 PM 59.0 °F 32.0 °F 36% 30.00 in 10.0 mi SE 18.4 mph 24.2 mph N/A   Clear
4:15 PM 59.0 °F 32.0 °F 36% 30.01 in 10.0 mi SE 17.3 mph - N/A   Clear
4:35 PM 59.0 °F 32.0 °F 36% 30.01 in 10.0 mi SSE 17.3 mph 21.9 mph N/A   Scattered Clouds
4:55 PM 55.4 °F 32.0 °F 41% 30.00 in 10.0 mi SE 16.1 mph 23.0 mph N/A   Scattered Clouds
5:15 PM 55.4 °F 32.0 °F 41% 29.99 in 10.0 mi SE 11.5 mph - N/A   Clear
5:35 PM 55.4 °F 32.0 °F 41% 29.99 in 10.0 mi SE 10.4 mph 17.3 mph N/A   Scattered Clouds
5:55 PM 53.6 °F 32.0 °F 44% 29.98 in 10.0 mi SE 12.7 mph - N/A   Scattered Clouds
6:15 PM 53.6 °F 32.0 °F 44% 29.99 in 10.0 mi SE 12.7 mph 17.3 mph N/A   Clear
6:35 PM 53.6 °F 32.0 °F 44% 29.99 in 10.0 mi SE 12.7 mph 17.3 mph N/A   Scattered Clouds
6:55 PM 53.6 °F 32.0 °F 44% 29.99 in 10.0 mi SE 16.1 mph - N/A   Scattered Clouds
7:15 PM 53.6 °F 32.0 °F 44% 29.99 in 10.0 mi SE 15.0 mph 19.6 mph N/A   Mostly Cloudy
7:35 PM 53.6 °F 32.0 °F 44% 29.98 in 10.0 mi SE 17.3 mph - N/A   Scattered Clouds
8:15 PM 53.6 °F 32.0 °F 44% 29.98 in 10.0 mi SE 17.3 mph 23.0 mph N/A   Scattered Clouds
8:35 PM 53.6 °F 32.0 °F 44% 29.97 in 10.0 mi SSE 19.6 mph 25.3 mph N/A   Mostly Cloudy
8:55 PM 53.6 °F 32.0 °F 44% 29.98 in 10.0 mi SSE 21.9 mph 27.6 mph N/A   Overcast
9:15 PM 53.6 °F 32.0 °F 44% 29.98 in 10.0 mi SSE 20.7 mph 28.8 mph N/A   Unknown
9:35 PM 53.6 °F 32.0 °F 44% 29.97 in 10.0 mi SSE 18.4 mph 26.5 mph N/A   Unknown
9:55 PM 53.6 °F 32.0 °F 44% 29.98 in 10.0 mi SSE 17.3 mph 27.6 mph N/A   Unknown
10:15 PM 53.6 °F 32.0 °F 44% 30.00 in 10.0 mi SSE 17.3 mph 23.0 mph N/A   Unknown
10:35 PM 53.6 °F 32.0 °F 44% 29.99 in 10.0 mi SSE 17.3 mph 23.0 mph N/A   Overcast
10:55 PM 51.8 °F 32.0 °F 47% 29.99 in 10.0 mi SSE 15.0 mph 25.3 mph N/A   Unknown
11:15 PM 51.8 °F 32.0 °F 47% 29.98 in 10.0 mi SSE 19.6 mph 27.6 mph N/A   Scattered Clouds
11:35 PM 51.8 °F 32.0 °F 47% 29.99 in 10.0 mi SSE 18.4 mph 24.2 mph N/A   Unknown
11:55 PM 51.8 °F 32.0 °F 47% 29.98 in 10.0 mi SSE 19.6 mph 27.6 mph N/A   Scattered Clouds